Погода в Кривоборье

Россия / Воронежская область     52°02′30″N   39°08′52″E
темп.,
°C
ветер,
м/с
пор.,
м/с
влажн.,
%
обл.,
%
осадки,
мм/ч
давл.,
гПа
погр.,
м
21 апреля, ср
ср2100:00+5св3797100 4.6 1003367
03:00+5св1399100 7.7 1002224
06:00+5сз3596100 1.2 1004250
09:00+4сз4693100 2.3 1007382
12:00+6з5784100 0.3 1010708
15:00+8юз4877100 0.3 1012962
18:00+8ююз268599 0.0 1013295
21:00+6ю35915 0.0 101568
22 апреля, чт
чт2200:00+5зюз399448 0.0 1016261
03:00+3юз37943 0.0 1018157
06:00+3юз24935 0.0 101972
09:00+8ююз35736 0.0 1020480
12:00+13юз355692 0.0 10201487
15:00+15юз3549100 0.0 10201922
18:00+13ю116388 0.0 102027
21:00+11ю2264100 0.0 102128
23 апреля, пт
пт2300:00+10ююв3668100 0.0 1020114
03:00+10ююв3669100 0.0 1020105
06:00+9ю367894 0.0 1020108
09:00+13ю476169 0.0 1019466
12:00+15ю475380 0.0 10181376
15:00+16ю574498 0.1 10171951
18:00+14ю4856100 0.0 1016399
21:00+12ююв396698 0.0 1015220
24 апреля, сб
сб2400:00+11ююв41167100 0.0 1013299
03:00+10ю398084 0.1 1011260
06:00+9ю51184100 0.4 1010613
09:00+7з7988100 1.0 1009811
12:00+6з598971 1.2 1012742
15:00+7з577391 2.4 10121019
18:00+8зсз586932 1.6 10121067
21:00+5юз227897 1.7 101321
25 апреля, вс
вс2500:00+4зюз248396 0.1 101364
03:00+3зюз2386100 0.1 101338
06:00+2зюз358941 0.0 1013141
09:00+7з46655 0.0 1014963
12:00+9з574799 0.1 10142073
15:00+10зюз6845100 0.1 10142280
18:00+8з47647 0.6 10141155
21:00+5зюз387573 0.8 1016287